Great Bend, KS

12:28 PM CST on January 19, 2018 (GMT -0600)
Great Bend Municipal

Weather History for KGBD - January, 2014

Change the Weather History Date:

Wednesday, January 1, 2014

  Actual Average Record
Temperature  
Mean Temperature 20 °F -  
Max Temperature 33 °F 39 °F 52 °F (2017)
Min Temperature 8 °F 19 °F -5 °F (2018)
Degree Days  
Heating Degree Days 44    
Moisture  
Dew Point 12 °F    
Average Humidity 73    
Maximum Humidity 86    
Minimum Humidity 63    
Precipitation  
Precipitation 0.00 in - - ()
Sea Level Pressure  
Sea Level Pressure 30.12 in    
Wind  
Wind Speed 12 mph (North)    
Max Wind Speed 28 mph    
Max Gust Speed 33 mph    
Visibility 8 miles    
Events      
Averages and records for this station are not official NWS values.
T = Trace of Precipitation, MM = Missing Value Source: NWS Daily Summary

Daily Weather History Graph

Daily Weather History Graph

Search for Another Location

Airport or City:

Trip Planner

Search our weather history database for the weather conditions in past years. The results will help you decide how hot, cold, wet, or windy it might be!

Date:

Astronomy

Jan. 01, 2014 Rise Set
Actual Time 7:52 AM CST 5:25 PM CST
Civil Twilight 7:22 AM CST 5:55 PM CST
Nautical Twilight 6:49 AM CST 6:28 PM CST
Astronomical Twilight 6:17 AM CST 7:00 PM CST
Moon 7:45 AM CST (1/1) 6:11 PM CST (1/1)
Length of Visible Light 10h 32m
Length of Day
9h 33m
New Moon, 0% of the Moon is Illuminated
Jan 1
New Moon
Jan 7
First Quarter
Jan 15
Full
Jan 23
Last Quarter
Jan 30
New

Hourly Weather History & Observations

Time (CST) Temp. Windchill Dew Point Humidity Pressure Visibility Wind Dir Wind Speed Gust Speed Precip Events Conditions
12:15 AM 33.8 °F 26.4 °F 24.8 °F 70% 29.96 in 10.0 mi SSW 9.2 mph - N/A   Clear
12:35 AM 33.8 °F 23.9 °F 24.8 °F 70% 29.92 in 10.0 mi SSW 15.0 mph - N/A   Clear
12:55 AM 33.8 °F - 24.8 °F 70% 29.94 in 10.0 mi Calm Calm - N/A   Clear
1:15 AM 33.8 °F 27.7 °F 24.8 °F 70% 29.93 in 10.0 mi SW 6.9 mph - N/A   Clear
1:35 AM 30.2 °F - 21.2 °F 69% 29.94 in 10.0 mi Calm Calm - N/A   Clear
1:55 AM 28.4 °F 24.6 °F 21.2 °F 74% 29.94 in 10.0 mi NNE 3.5 mph - N/A   Clear
2:15 AM 28.4 °F 23.3 °F 21.2 °F 74% 29.94 in 10.0 mi NNE 4.6 mph - N/A   Clear
2:35 AM 28.4 °F 21.2 °F 21.2 °F 74% 29.94 in 10.0 mi ENE 6.9 mph - N/A   Clear
2:55 AM 26.6 °F - 19.4 °F 74% 29.94 in 10.0 mi Calm Calm - N/A   Clear
3:15 AM 26.6 °F 22.6 °F 21.2 °F 80% 29.94 in 10.0 mi NE 3.5 mph - N/A   Clear
3:35 AM 26.6 °F 21.2 °F 21.2 °F 80% 29.94 in 10.0 mi NE 4.6 mph - N/A   Clear
3:55 AM 26.6 °F - 21.2 °F 80% 29.92 in 10.0 mi Calm Calm - N/A   Clear
4:15 AM 26.6 °F 18.2 °F 21.2 °F 80% 29.92 in 10.0 mi NNE 8.1 mph - N/A   Clear
4:35 AM 24.8 °F 16.1 °F 19.4 °F 80% 29.91 in 10.0 mi NNE 8.1 mph - N/A   Clear
4:55 AM 24.8 °F 17.9 °F 19.4 °F 80% 29.91 in 10.0 mi ENE 5.8 mph - N/A   Clear
5:15 AM 24.8 °F 16.9 °F 19.4 °F 80% 29.91 in 10.0 mi NE 6.9 mph - N/A   Clear
5:35 AM 24.8 °F 16.1 °F 19.4 °F 80% 29.90 in 10.0 mi ESE 8.1 mph - N/A   Clear
5:55 AM 24.8 °F 14.0 °F 19.4 °F 80% 29.93 in 10.0 mi North 11.5 mph - N/A   Clear
6:15 AM 23.0 °F 11.7 °F 17.6 °F 80% 29.93 in 10.0 mi NNE 11.5 mph 17.3 mph N/A   Clear
6:35 AM 23.0 °F 10.1 °F 17.6 °F 80% 29.95 in 10.0 mi NNE 15.0 mph - N/A   Partly Cloudy
6:55 AM 21.2 °F 8.3 °F 15.8 °F 80% 29.95 in 10.0 mi NNE 13.8 mph 17.3 mph N/A   Mostly Cloudy
7:15 AM 19.4 °F 5.5 °F 15.8 °F 86% 29.95 in 10.0 mi NE 15.0 mph - N/A   Mostly Cloudy
7:35 AM 19.4 °F 3.6 °F 12.2 °F 74% 29.98 in 10.0 mi NNE 19.6 mph 25.3 mph N/A   Mostly Cloudy
7:55 AM 19.4 °F 4.1 °F 12.2 °F 74% 29.98 in 10.0 mi NNE 18.4 mph - N/A   Mostly Cloudy
8:15 AM 17.6 °F 2.7 °F 10.4 °F 73% 29.98 in 10.0 mi NNE 16.1 mph - N/A   Mostly Cloudy
8:35 AM 17.6 °F 1.7 °F 10.4 °F 73% 30.01 in 10.0 mi NNE 18.4 mph 26.5 mph N/A   Mostly Cloudy
8:55 AM 17.6 °F 3.2 °F 12.2 °F 79% 30.02 in 10.0 mi NNE 15.0 mph - N/A   Overcast
9:15 AM 17.6 °F 1.7 °F 10.4 °F 73% 30.04 in 10.0 mi NNE 18.4 mph 23.0 mph N/A   Overcast
9:35 AM 17.6 °F 2.7 °F 10.4 °F 73% 30.04 in 10.0 mi NNE 16.1 mph - N/A   Overcast
9:55 AM 17.6 °F 2.7 °F 10.4 °F 73% 30.05 in 10.0 mi NE 16.1 mph - N/A   Overcast
10:15 AM 17.6 °F 2.7 °F 10.4 °F 73% 30.05 in 10.0 mi NNE 16.1 mph - N/A   Overcast
10:35 AM 17.6 °F 2.7 °F 8.6 °F 68% 30.06 in 10.0 mi NNE 16.1 mph - N/A   Mostly Cloudy
10:55 AM 17.6 °F 1.7 °F 10.4 °F 73% 30.07 in 10.0 mi North 18.4 mph - N/A   Mostly Cloudy
11:15 AM 19.4 °F 3.2 °F 10.4 °F 68% 30.07 in 10.0 mi NNE 20.7 mph - N/A   Overcast
11:35 AM 19.4 °F 4.5 °F 10.4 °F 68% 30.09 in 10.0 mi North 17.3 mph 26.5 mph N/A   Mostly Cloudy
11:55 AM 19.4 °F 3.6 °F 10.4 °F 68% 30.10 in 10.0 mi North 19.6 mph - N/A   Mostly Cloudy
12:15 PM 19.4 °F 3.6 °F 10.4 °F 68% 30.09 in 10.0 mi North 19.6 mph 26.5 mph N/A   Mostly Cloudy
12:35 PM 19.4 °F 2.8 °F 10.4 °F 68% 30.09 in 10.0 mi North 21.9 mph 28.8 mph N/A   Overcast
12:55 PM 21.2 °F 5.2 °F 10.4 °F 63% 30.09 in 10.0 mi North 21.9 mph 25.3 mph N/A   Overcast
1:15 PM 21.2 °F 6.4 °F 10.4 °F 63% 30.10 in 10.0 mi North 18.4 mph 28.8 mph N/A   Overcast
1:35 PM 21.2 °F 3.9 °F 10.4 °F 63% 30.10 in 10.0 mi North 26.5 mph 32.2 mph N/A   Overcast
1:55 PM 21.2 °F 4.5 °F 10.4 °F 63% 30.11 in 10.0 mi North 24.2 mph 33.4 mph N/A   Overcast
2:15 PM 19.4 °F 1.4 °F 10.4 °F 68% 30.12 in 8.0 mi North 26.5 mph 32.2 mph N/A   Overcast
2:35 PM 17.6 °F -1.3 °F 8.6 °F 68% 30.13 in 2.5 mi North 27.6 mph 32.2 mph N/A   Overcast
2:55 PM 17.6 °F 0.5 °F 8.6 °F 68% 30.15 in 1.8 mi North 21.9 mph 29.9 mph N/A   Overcast
3:15 PM 15.8 °F -2.3 °F 8.6 °F 73% 30.16 in 1.8 mi North 23.0 mph 28.8 mph N/A   Overcast
3:35 PM 15.8 °F -1.5 °F 8.6 °F 73% 30.18 in 1.2 mi North 20.7 mph 28.8 mph N/A   Overcast
3:55 PM 15.8 °F -1.1 °F 8.6 °F 73% 30.19 in 1.0 mi North 19.6 mph 24.2 mph N/A   Overcast
4:15 PM 15.8 °F -0.2 °F 8.6 °F 73% 30.21 in 1.2 mi North 17.3 mph 23.0 mph N/A   Overcast
4:35 PM 15.8 °F -1.9 °F 8.6 °F 73% 30.22 in 1.0 mi North 21.9 mph 26.5 mph N/A   Overcast
4:55 PM 15.8 °F 1.4 °F 8.6 °F 73% 30.24 in 1.0 mi North 13.8 mph - N/A   Overcast
5:15 PM 15.8 °F 0.3 °F 8.6 °F 73% 30.24 in 0.8 mi North 16.1 mph - N/A   Overcast
5:35 PM 14.0 °F -1.4 °F 8.6 °F 79% 30.26 in 1.8 mi North 15.0 mph 23.0 mph N/A   Overcast
5:55 PM 15.8 °F 0.3 °F 8.6 °F 73% 30.28 in 4.0 mi North 16.1 mph - N/A   Overcast
6:15 PM 15.8 °F 1.4 °F 8.6 °F 73% 30.29 in 4.0 mi North 13.8 mph 19.6 mph N/A   Overcast
6:35 PM 15.8 °F 0.3 °F 8.6 °F 73% 30.30 in 5.0 mi NNW 16.1 mph 19.6 mph N/A   Overcast
6:55 PM 15.8 °F -0.2 °F 8.6 °F 73% 30.31 in 9.0 mi NNW 17.3 mph - N/A   Mostly Cloudy
7:15 PM 15.8 °F -1.1 °F 8.6 °F 73% 30.32 in 10.0 mi North 19.6 mph - N/A   Partly Cloudy
7:35 PM 15.8 °F -0.2 °F 8.6 °F 73% 30.33 in 10.0 mi North 17.3 mph 24.2 mph N/A   Clear
7:55 PM 15.8 °F -0.2 °F 6.8 °F 68% 30.34 in 10.0 mi NNW 17.3 mph 24.2 mph N/A   Clear
8:15 PM 14.0 °F -1.4 °F 6.8 °F 73% 30.34 in 10.0 mi North 15.0 mph 23.0 mph N/A   Clear
8:35 PM 14.0 °F -2.0 °F 6.8 °F 73% 30.35 in 10.0 mi North 16.1 mph 20.7 mph N/A   Clear
8:55 PM 12.2 °F -2.5 °F 6.8 °F 79% 30.36 in 10.0 mi North 12.7 mph - N/A   Clear
9:15 PM 12.2 °F -3.1 °F 5.0 °F 73% 30.37 in 10.0 mi North 13.8 mph - N/A   Clear
9:35 PM 12.2 °F -3.1 °F 5.0 °F 73% 30.37 in 10.0 mi North 13.8 mph 19.6 mph N/A   Clear
9:55 PM 12.2 °F -2.5 °F 3.2 °F 67% 30.38 in 10.0 mi North 12.7 mph 18.4 mph N/A   Clear
10:15 PM 12.2 °F -1.8 °F 3.2 °F 67% 30.39 in 10.0 mi North 11.5 mph - N/A   Clear
10:35 PM 10.4 °F -3.3 °F 3.2 °F 73% 30.38 in 10.0 mi North 10.4 mph - N/A   Clear
10:55 PM 10.4 °F -1.5 °F 3.2 °F 73% 30.39 in 10.0 mi North 8.1 mph - N/A   Clear
11:15 PM 8.6 °F -2.6 °F 1.4 °F 73% 30.39 in 10.0 mi North 6.9 mph - N/A   Clear
11:35 PM 10.4 °F 0.8 °F 3.2 °F 73% 30.39 in 10.0 mi NNW 5.8 mph - N/A   Mostly Cloudy
11:55 PM 10.4 °F -0.4 °F 3.2 °F 73% 30.39 in 10.0 mi NW 6.9 mph - N/A   Overcast